Regional Weather Roundup
Issued by NWS Northern Indiana

Home | Current Version | Previous Version | Text Only | Print | Product List | Glossary Off
Versions: 1 2 3 4 5 6 7 8 9 10 11 12 13 14 15 16 17 18 19 20 21 22 23 24 25 26 27 28 29 30 31 32 33 34 35 36 37 38 39 40 41 42 43 44 45 46 47 48 49 50

000
ASUS43 KIWX 040910
RWRIWX

KIWX WEATHER ROUNDUP
NATIONAL WEATHER SERVICE NORTHERN INDIANA
500 AM EDT MON MAY 04 2015

NOTE: "FAIR" INDICATES FEW OR NO CLOUDS BELOW 12,000 FEET WITH NO
SIGNIFICANT WEATHER AND/OR OBSTRUCTIONS TO VISIBILITY.

* THESE STATIONS ARE NOT UNDER NWS QUALITY CONTROL. THEY ALSO MAY NOT
  REPORT WEATHER SUCH AS PRECIPITATION OR FOG.

INZ001>027-041000-
NORTHERN INDIANA

CITY           SKY/WX    TMP DP  RH WIND       PRES   REMARKS
GARY*          LGT RAIN  68  41  36 SW8G16    29.95R
VALPARAISO     CLOUDY    66  44  45 SW15      29.96S
MICHIGAN CITY* CLOUDY    64  37  36 S10G16    29.95S
LAPORTE*       CLOUDY    65  46  50 S8        29.96F
KNOX*          CLOUDY    64  23  20 SW16G24   29.96S
SOUTH BEND     CLOUDY    67  44  43 S13       29.96F
GOSHEN         MOCLDY    64  47  53 S10       29.99S
MONTICELLO*    PTCLDY    62  49  60 S10       30.00S
LOGANSPORT*    PTCLDY    59  45  58 S10       30.02S
ROCHESTER*     MOCLDY    66  46  48 S10       30.00F
WARSAW*        MOCLDY    64  46  52 SW6       30.00F
ANGOLA*        PTCLDY    63  52  67 S5        30.01F
FORT WAYNE     MOCLDY    61  49  64 S9        30.04S
HUNTINGTON*    MOCLDY    62  48  61 S5        30.03S
PERU/GRISSOM   MOCLDY    61  49  63 S10       30.01F
MARION*        PTCLDY    59  47  65 S10       30.05S

$$
INZ028>050-041000-
CENTRAL INDIANA

CITY           SKY/WX    TMP DP  RH WIND       PRES   REMARKS
LAFAYETTE      PTCLDY    61  47  59 SW5       30.01F
MUNCIE*        PTCLDY    61  48  62 S7        30.07R
INDIANAPOLIS   MOCLDY    58  47  66 S7        30.06R

$$
MIZ043>046-050>051-056>058-064>065-071>073-077>080-041000-
SOUTHWEST LOWER MICHIGAN

CITY           SKY/WX    TMP DP  RH WIND       PRES   REMARKS
BATTLE CREEK   LGT RAIN  61  54  77 SE9       29.97F
BENTON HARBOR  CLOUDY    65  47  52 S8        29.91F
COLDWATER*     CLOUDY    62  48  62 SE3       30.00F
HILLSDALE*     CLOUDY    62  48  58 S5        30.02F
HOLLAND        LGT RAIN  61  54  77 S10       29.94R
GRAND RAPIDS   LGT RAIN  59  55  87 SE13      29.93F
KALAMAZOO      CLOUDY    61  53  75 S8        29.96F
STURGIS*       CLOUDY    63  48  59 CALM      29.98F
THREE RIVERS*  MOCLDY    63  49  61 S8        29.97F

$$
OHZ001>008-015>018-024>025-041000-
NORTHWEST OHIO

CITY           SKY/WX    TMP DP  RH WIND       PRES   REMARKS
WAUSEON*       MOCLDY    61  48  63 S8        30.03S
DEFIANCE       CLOUDY    62  48  60 S7        30.04R
FINDLAY        CLEAR     62  47  57 S13       30.06R
TOLEDO EXPRESS PTCLDY    63  46  54 S8        30.04R
TOLEDO METCALF PTCLDY    63  45  51 S9        30.05S
LIMA           PTCLDY    61  47  59 S9        30.07S

$$
AND FOR LAKE MICHIGAN COASTAL AND OPEN LAKE BUOY OBSERVATIONS

STATION/POSITION TEMP    WIND        PRES    VSBY  WAVE
                 AIR SEA DIR/SP/G                  HT/PER
                 (F)     (DEG/KT/KT) (MB)    (MI)  (FT/S)
CALUMET HARBOR    67     230/  8/ 13   N/A
MICHIGAN CITY     66     170/ 16/ 20   N/A
BURNS HARBOR      66     200/ 16/ 21 1014.2R
SAINT JOSEPH      69     190/ 19/ 24 1013.5F
4 MI NW BRIDGMAN  59 47  240/ 16/ 17   N/A           3/ 3
MICHIGAN CITY     61 50  230/ 14/ 16   N/A           2/ 2

$$
&&


USA.gov is the U.S. government's official web portal to all federal, state and local government web resources and services.